Location: Home
(42.5358°N, 72.7383°W)
Time: 00:14:46
(UTC-04:00)

DELTA 1 DEB - Pass Details

Date: 01 July 2022
Orbit: 600 x 774 km, 98.5° (Epoch: 16 August)

Event Time Altitude Azimuth Distance (km) Brightness Sun altitude
Exits shadow 21:54:39 16° 120° (ESE) 1,923 ? -12.4°
Maximum altitude 21:57:56 31° 67° (ENE) 1,303 ? -12.8°
Drops below altitude 10° 22:02:17 10° 7° (N) 2,252 ? -13.3°
Sets 22:04:44 0° 357° (N) 3,153 ? -13.6°
